Location: BGSU Observatory
(41.3799°N, 83.6397°W)
Time: 05:08:56
(UTC-04:00)

Amateur Radio Satellites - All Passes

Search period start: 31 October 2014 04:38
Search period end: 01 November 2014 04:38
Location: BGSU Observatory, 41.3799°N, 83.6397°W

Satellite Date Start Highest point End Downlink Frequencies (MHz)
Time Altitude Azimuth
Oscar 19 31 Oct 04:45:05 04:48:10 16° 299° (WNW) 04:51:14 437.125 CW, 437.150 USB
Uosat F 31 Oct 04:45:11 04:47:05 12° 89° (E) 04:48:59 435.120 FM
AO-7 31 Oct 04:58:37 05:05:49 31° 96° (E) 05:12:59 29.400 - 29.500 MHz
RS-15 31 Oct 05:13:52 05:23:50 36° 36° (NE) 05:34:06 29.354 - 29.394 USB, Beacon 29.352 USB
AO-27 31 Oct 05:19:48 05:23:24 19° 298° (WNW) 05:27:00 436.795 MHz FM
Gurwin Techsat 1B 31 Oct 05:32:06 05:36:29 27° 295° (WNW) 05:40:51 435.225 FM
TMSAT-1 31 Oct 05:38:36 05:43:12 31° 293° (WNW) 05:47:46 436.925 FM
JAS-1B 31 Oct 05:39:43 05:43:09 14° 304° (NW) 05:46:51 435.800 - 435.900 CW/SSB
OPAL 31 Oct 05:54:08 05:59:16 85° 73° (ENE) 06:04:21 ?
Sapphire 31 Oct 05:55:04 05:55:54 10° 326° (NW) 05:56:45 437.095 MHz 1200 baud AX-25 AFSK
STRAND 1 31 Oct 06:13:24 06:16:28 16° 61° (ENE) 06:19:33 ?
Hamsat 31 Oct 06:14:04 06:15:53 12° 90° (E) 06:17:41 145.90 MHz
Uosat F 31 Oct 06:21:22 06:26:26 77° 286° (WNW) 06:31:27 435.120 FM
JAS-2 31 Oct 06:40:56 06:48:39 55° 99° (E) 06:56:04 435.800 - 435.900 CW/SSB, 435.910 FM
Saudisat 1A 31 Oct 06:44:33 06:48:54 72° 120° (ESE) 06:53:18 436.775 MHz
AO-7 31 Oct 06:50:51 06:58:58 59° 294° (WNW) 07:07:05 29.400 - 29.500 MHz
PANSAT 31 Oct 06:52:18 06:53:47 12° 181° (S) 06:55:16 not established
RS-15 31 Oct 07:26:14 07:37:27 81° 241° (WSW) 07:49:09 29.354 - 29.394 USB, Beacon 29.352 USB
OPAL 31 Oct 07:37:24 07:38:43 11° 269° (W) 07:40:03 ?
Hamsat 31 Oct 07:48:01 07:52:08 55° 286° (WNW) 07:56:17 145.90 MHz
STRAND 1 31 Oct 07:49:59 07:55:05 68° 258° (WSW) 08:00:14 ?
MaSat-1 31 Oct 08:14:03 08:16:23 34° 60° (ENE) 08:18:35 437.345 MHz
Saudisat 1A 31 Oct 08:26:08 08:28:57 16° 319° (NW) 08:31:47 436.775 MHz
JAS-2 31 Oct 08:26:24 08:33:15 35° 297° (WNW) 08:39:59 435.800 - 435.900 CW/SSB, 435.910 FM
AO-7 31 Oct 08:46:16 08:50:02 14° 315° (NW) 08:53:48 29.400 - 29.500 MHz
SO-67 31 Oct 08:52:04 08:55:31 69° 284° (WNW) 08:58:55 435.3500 MHz FM
HO-68 31 Oct 09:36:26 09:42:20 27° 94° (E) 09:48:11 435.675 MHz FM
RS-15 31 Oct 09:41:02 09:48:04 19° 261° (W) 09:55:19 29.354 - 29.394 USB, Beacon 29.352 USB
Oscar 11 31 Oct 10:29:01 10:32:16 20° 94° (E) 10:35:29 145.825 FM, Beacon 2401.500 USB
ISS 31 Oct 10:39:31 10:42:33 35° 137° (SE) 10:45:38 145.800 FM
KITSAT 1 31 Oct 10:43:05 10:49:49 30° 106° (ESE) 10:56:34 435.175 FM
FUNcube-1 31 Oct 10:46:26 10:48:11 12° 90° (E) 10:49:56 145.950 - 145.970 MHz USB
Sapphire 31 Oct 11:10:55 11:15:11 23° 46° (NE) 11:19:25 437.095 MHz 1200 baud AX-25 AFSK
HO-68 31 Oct 11:23:22 11:30:24 59° 292° (WNW) 11:37:24 435.675 MHz FM
UKube-1 31 Oct 11:29:05 11:33:29 85° 284° (WNW) 11:37:50 145.840 MHz, 145.915 MHz
PCSat 31 Oct 11:32:16 11:37:12 34° 51° (NE) 11:42:05 145.825 MHz
ZACube-1 31 Oct 11:37:53 11:41:57 49° 99° (E) 11:45:58 437.345 MHz
Oscar 11 31 Oct 12:04:36 12:08:31 34° 290° (WNW) 12:12:25 145.825 FM, Beacon 2401.500 USB
SO-50 31 Oct 12:12:11 12:16:41 87° 124° (ESE) 12:21:20 436.795 FM
ISS 31 Oct 12:16:14 12:19:16 32° 334° (NNW) 12:22:19 145.800 FM
FUNcube-1 31 Oct 12:20:49 12:24:55 53° 287° (WNW) 12:28:56 145.950 - 145.970 MHz USB
KITSAT 1 31 Oct 12:36:43 12:44:41 62° 305° (NW) 12:52:43 435.175 FM
Oscar 19 31 Oct 12:45:34 12:47:44 13° 59° (ENE) 12:49:54 437.125 CW, 437.150 USB
JAS-1B 31 Oct 12:46:27 12:49:16 14° 56° (ENE) 12:52:07 435.800 - 435.900 CW/SSB
Sapphire 31 Oct 12:53:40 12:59:02 61° 245° (WSW) 13:04:21 437.095 MHz 1200 baud AX-25 AFSK
UOSAT-12 31 Oct 12:57:28 13:01:13 25° 112° (ESE) 13:05:02 437.025 FM, 437.400 FM
HO-68 31 Oct 13:14:19 13:16:37 12° 312° (NW) 13:18:56 435.675 MHz FM
ZACube-1 31 Oct 13:15:37 13:17:56 15° 296° (WNW) 13:20:14 437.345 MHz
PCSat 31 Oct 13:15:40 13:20:36 36° 249° (WSW) 13:25:31 145.825 MHz
AO-27 31 Oct 13:22:00 13:23:53 12° 58° (ENE) 13:25:46 436.795 MHz FM
Oscar 16 31 Oct 13:29:45 13:34:18 33° 68° (ENE) 13:38:51 437.025 USB, Beacon 2401.1428
Saudisat 1A 31 Oct 13:34:31 13:35:00 10° 34° (NE) 13:35:29 436.775 MHz
ISS 31 Oct 13:54:45 13:56:43 15° 354° (N) 13:58:42 145.800 FM
SO-50 31 Oct 13:55:13 13:57:55 15° 322° (NW) 14:00:40 436.795 FM
Uribyol 2 31 Oct 14:02:44 14:07:10 29° 66° (ENE) 14:11:37 436.500 FM
AO-Echo 31 Oct 14:05:07 14:09:37 35° 68° (ENE) 14:14:17 ?
ITAMSAT 1 31 Oct 14:10:31 14:15:05 32° 67° (ENE) 14:19:41 435.822 SSB
Oscar 19 31 Oct 14:21:11 14:26:20 86° 256° (WSW) 14:31:30 437.125 CW, 437.150 USB
JAS-1B 31 Oct 14:33:25 14:39:12 79° 256° (WSW) 14:44:57 435.800 - 435.900 CW/SSB
KITSAT 1 31 Oct 14:36:26 14:41:54 19° 330° (NNW) 14:47:23 435.175 FM
UOSAT-12 31 Oct 14:36:46 14:41:09 40° 310° (NW) 14:45:37 437.025 FM, 437.400 FM
AO-27 31 Oct 14:57:21 15:02:34 86° 75° (ENE) 15:07:50 436.795 MHz FM
Oscar 16 31 Oct 15:09:07 15:13:37 30° 264° (W) 15:18:08 437.025 USB, Beacon 2401.1428
Saudisat 1A 31 Oct 15:11:08 15:15:31 57° 54° (NE) 15:19:52 436.775 MHz
Gurwin Techsat 1B 31 Oct 15:12:48 15:18:02 63° 73° (ENE) 15:23:18 435.225 FM
TMSAT-1 31 Oct 15:19:16 15:24:25 54° 72° (ENE) 15:29:35 436.925 FM
ISS 31 Oct 15:31:59 15:34:24 18° 15° (NNE) 15:36:48 145.800 FM
Uribyol 2 31 Oct 15:41:44 15:46:30 36° 263° (W) 15:51:18 436.500 FM
AO-Echo 31 Oct 15:44:11 15:48:25 27° 266° (W) 15:52:47 ?
ITAMSAT 1 31 Oct 15:49:53 15:54:31 32° 264° (W) 15:59:11 435.822 SSB
AO-7 31 Oct 15:57:37 16:05:16 44° 62° (ENE) 16:12:57 29.400 - 29.500 MHz
Uosat F 31 Oct 15:57:55 16:01:20 19° 62° (ENE) 16:04:47 435.120 FM
KITSAT 1 31 Oct 16:39:35 16:41:22 11° 1° (N) 16:43:09 435.175 FM
AO-27 31 Oct 16:41:21 16:42:44 11° 272° (W) 16:44:07 436.795 MHz FM
Saudisat 1A 31 Oct 16:52:03 16:54:36 15° 251° (WSW) 16:57:10 436.775 MHz
JAS-2 31 Oct 16:54:09 16:59:09 24° 58° (ENE) 17:04:34 435.800 - 435.900 CW/SSB, 435.910 FM
Gurwin Techsat 1B 31 Oct 16:55:12 16:58:26 16° 269° (W) 17:01:40 435.225 FM
TMSAT-1 31 Oct 17:00:56 17:04:38 19° 268° (W) 17:08:22 436.925 FM
ISS 31 Oct 17:08:15 17:11:35 66° 33° (NNE) 17:14:54 145.800 FM
Uosat F 31 Oct 17:34:46 17:39:41 55° 259° (W) 17:44:39 435.120 FM
AO-7 31 Oct 17:50:17 17:58:01 43° 260° (W) 18:05:50 29.400 - 29.500 MHz
OPAL 31 Oct 18:04:52 18:08:34 21° 96° (E) 18:12:15 ?
KITSAT 1 31 Oct 18:35:04 18:40:45 20° 31° (NNE) 18:46:25 435.175 FM
JAS-2 31 Oct 18:37:14 18:43:27 66° 260° (W) 18:50:33 435.800 - 435.900 CW/SSB, 435.910 FM
Hamsat 31 Oct 18:40:59 18:45:10 79° 258° (WSW) 18:49:21 145.90 MHz
ISS 31 Oct 18:46:00 18:47:54 14° 229° (SW) 18:49:48 145.800 FM
SO-50 31 Oct 19:04:29 19:07:09 15° 37° (NE) 19:09:50 436.795 FM
SO-67 31 Oct 19:24:33 19:27:42 34° 73° (ENE) 19:30:51 435.3500 MHz FM
OPAL 31 Oct 19:42:57 19:47:39 45° 292° (WNW) 19:52:20 ?
RS-15 31 Oct 19:45:34 19:49:56 13° 96° (E) 19:54:16 29.354 - 29.394 USB, Beacon 29.352 USB
STRAND 1 31 Oct 20:00:41 20:05:33 41° 98° (E) 20:10:22 ?
HO-68 31 Oct 20:06:14 20:11:24 22° 56° (ENE) 20:16:36 435.675 MHz FM
KITSAT 1 31 Oct 20:29:46 20:37:49 67° 56° (NE) 20:45:50 435.175 FM
SO-50 31 Oct 20:43:37 20:48:29 79° 56° (ENE) 20:53:23 436.795 FM
AO-40 31 Oct 20:48:02 22:20:26 16° 109° (ESE) 23:16:52 Beacon 2401.320
SO-67 31 Oct 20:59:16 21:00:48 13° 268° (W) 21:02:20 435.3500 MHz FM
Oscar 11 31 Oct 21:24:44 21:27:35 17° 65° (ENE) 21:30:25 145.825 FM, Beacon 2401.500 USB
UOSAT-12 31 Oct 21:26:26 21:30:23 25° 45° (NE) 21:34:16 437.025 FM, 437.400 FM
STRAND 1 31 Oct 21:40:21 21:44:30 25° 295° (WNW) 21:48:37 ?
FUNcube-1 31 Oct 21:43:20 21:45:13 13° 63° (ENE) 21:47:06 145.950 - 145.970 MHz USB
RS-15 31 Oct 21:49:10 22:00:02 68° 116° (ESE) 22:10:49 29.354 - 29.394 USB, Beacon 29.352 USB
MaSat-1 31 Oct 21:50:08 21:52:00 13° 106° (ESE) 21:53:49 437.345 MHz
HO-68 31 Oct 21:51:11 21:58:20 78° 255° (WSW) 22:05:34 435.675 MHz FM
UKube-1 31 Oct 22:24:15 22:28:37 83° 75° (ENE) 22:33:00 145.840 MHz, 145.915 MHz
KITSAT 1 31 Oct 22:26:05 22:32:35 28° 255° (WSW) 22:39:05 435.175 FM
SO-50 31 Oct 22:26:18 22:28:25 13° 253° (WSW) 22:30:31 436.795 FM
ZACube-1 31 Oct 22:34:03 22:38:18 41° 72° (ENE) 22:42:29 437.345 MHz
Oscar 11 31 Oct 22:59:19 23:03:25 43° 261° (W) 23:07:33 145.825 FM, Beacon 2401.500 USB
UOSAT-12 31 Oct 23:06:14 23:10:42 44° 243° (WSW) 23:15:05 437.025 FM, 437.400 FM
FUNcube-1 31 Oct 23:16:32 23:21:03 69° 259° (WSW) 23:25:30 145.950 - 145.970 MHz USB
MaSat-1 31 Oct 23:23:26 23:27:08 43° 298° (WNW) 23:30:29 437.345 MHz
HO-68 31 Oct 23:44:17 23:47:07 13° 273° (W) 23:49:57 435.675 MHz FM
RS-15 01 Nov 00:03:03 00:13:06 40° 321° (NW) 00:23:16 29.354 - 29.394 USB, Beacon 29.352 USB
ZACube-1 01 Nov 00:11:40 00:14:50 19° 267° (W) 00:17:58 437.345 MHz
Oscar 16 01 Nov 01:44:06 01:45:01 10° 88° (E) 01:45:57 437.025 USB, Beacon 2401.1428
Sapphire 01 Nov 01:54:24 01:57:46 17° 104° (ESE) 02:01:09 437.095 MHz 1200 baud AX-25 AFSK
AO-Echo 01 Nov 02:14:21 02:16:12 12° 88° (E) 02:18:02 ?
PCSat 01 Nov 02:14:35 02:19:08 28° 109° (ESE) 02:23:43 145.825 MHz
JAS-1B 01 Nov 02:15:19 02:21:45 32° 97° (E) 02:29:07 435.800 - 435.900 CW/SSB
RS-15 01 Nov 02:22:02 02:29:43 21° 354° (N) 02:37:32 29.354 - 29.394 USB, Beacon 29.352 USB
ITAMSAT 1 01 Nov 02:26:16 02:27:01 10° 88° (E) 02:27:47 435.822 SSB
Oscar 19 01 Nov 02:33:03 02:37:40 33° 97° (E) 02:42:15 437.125 CW, 437.150 USB
AO-27 01 Nov 03:10:48 03:15:24 31° 96° (E) 03:19:58 436.795 MHz FM
Oscar 16 01 Nov 03:19:53 03:25:02 87° 285° (WNW) 03:30:09 437.025 USB, Beacon 2401.1428
Gurwin Techsat 1B 01 Nov 03:29:34 03:33:54 25° 94° (E) 03:38:13 435.225 FM
Sapphire 01 Nov 03:35:14 03:40:36 67° 302° (WNW) 03:46:01 437.095 MHz 1200 baud AX-25 AFSK
TMSAT-1 01 Nov 03:35:49 03:39:48 21° 93° (E) 03:43:45 436.925 FM
AO-Echo 01 Nov 03:50:14 03:55:36 85° 285° (WNW) 04:00:52 ?
Uribyol 2 01 Nov 03:53:50 03:59:04 82° 104° (ESE) 04:04:15 436.500 FM
PCSat 01 Nov 03:57:14 04:02:21 42° 306° (NW) 04:07:30 145.825 MHz
ITAMSAT 1 01 Nov 04:01:57 04:07:12 90° 288° (WNW) 04:12:24 435.822 SSB
AO-7 01 Nov 04:02:55 04:04:55 11° 86° (E) 04:06:55 29.400 - 29.500 MHz
JAS-1B 01 Nov 04:05:32 04:12:26 55° 290° (WNW) 04:20:39 435.800 - 435.900 CW/SSB
Oscar 19 01 Nov 04:12:30 04:16:55 30° 293° (WNW) 04:21:18 437.125 CW, 437.150 USB
